TimePST,TemperatureF,Dew PointF,Humidity,Sea Level PressureIn,VisibilityMPH,Wind Direction,Wind SpeedMPH,Gust SpeedMPH,PrecipitationIn,Events,Conditions,WindDirDegrees,DateUTC
12:53 AM,55.9,19.9,25,30.13,10.0,NW,6.9,-,N/A,,Clear,320,2012-01-01 08:53:00
1:53 AM,52.0,26.1,37,30.15,10.0,Calm,Calm,-,N/A,,Clear,0,2012-01-01 09:53:00
2:53 AM,50.0,28.9,44,30.15,10.0,NW,3.5,-,N/A,,Clear,310,2012-01-01 10:53:00
3:53 AM,48.9,19.0,31,30.15,10.0,NNW,8.1,-,N/A,,Clear,340,2012-01-01 11:53:00
4:53 AM,51.1,21.0,31,30.17,10.0,NNW,4.6,-,N/A,,Clear,330,2012-01-01 12:53:00
5:53 AM,50.0,21.0,32,30.19,10.0,Calm,Calm,-,N/A,,Clear,0,2012-01-01 13:53:00
6:53 AM,52.0,17.1,25,30.22,10.0,NNW,5.8,-,N/A,,Clear,340,2012-01-01 14:53:00
7:53 AM,53.1,28.0,38,30.25,10.0,Calm,Calm,-,N/A,,Clear,0,2012-01-01 15:53:00
8:53 AM,64.9,27.0,24,30.27,10.0,Calm,Calm,-,N/A,,Clear,0,2012-01-01 16:53:00
9:53 AM,70.0,25.0,18,30.27,10.0,Calm,Calm,-,N/A,,Clear,0,2012-01-01 17:53:00
10:53 AM,75.9,15.1,10,30.25,10.0,Calm,Calm,-,N/A,,Clear,0,2012-01-01 18:53:00
11:53 AM,78.1,14.0,9,30.20,10.0,SE,3.5,-,N/A,,Clear,130,2012-01-01 19:53:00
12:53 PM,80.6,14.0,8,30.18,10.0,Variable,4.6,-,N/A,,Clear,0,2012-01-01 20:53:00
1:53 PM,80.6,15.8,9,30.17,10.0,East,4.6,-,N/A,,Clear,80,2012-01-01 21:53:00
2:53 PM,81.0,16.0,9,30.16,10.0,East,5.8,-,N/A,,Clear,90,2012-01-01 22:53:00
3:53 PM,79.0,19.9,11,30.17,10.0,SSE,4.6,-,N/A,,Clear,150,2012-01-01 23:53:00
4:53 PM,71.1,30.0,22,30.18,10.0,Calm,Calm,-,N/A,,Clear,0,2012-01-02 00:53:00
5:53 PM,66.0,27.0,23,30.20,10.0,NNW,6.9,-,N/A,,Clear,340,2012-01-02 01:53:00
6:53 PM,62.1,19.9,20,30.22,10.0,NW,6.9,-,N/A,,Clear,320,2012-01-02 02:53:00
7:53 PM,61.0,21.0,21,30.23,10.0,NW,6.9,-,N/A,,Clear,310,2012-01-02 03:53:00
8:53 PM,63.0,15.1,16,30.23,10.0,NW,6.9,-,N/A,,Clear,320,2012-01-02 04:53:00
9:53 PM,60.1,18.0,20,30.23,10.0,NW,5.8,-,N/A,,Clear,320,2012-01-02 05:53:00
10:53 PM,54.0,23.0,30,30.23,10.0,NNW,8.1,-,N/A,,Clear,330,2012-01-02 06:53:00
11:53 PM,55.9,18.0,23,30.23,10.0,NNW,9.2,-,N/A,,Clear,340,2012-01-02 07:53:00